[[{"header":{"parameterUnit":"m.s-1","parameterCategory":2,"la1":30.2991,"la2":30.254,"lo1":-89.0895,"lo2":-89.0444,"dy":0.0017,"dx":0.0017,"nx":28,"ny":28,"refTime":"2025-09-05T09:00:00:Z","depth":"0","parameterNumber":2,"parameterNumberName":"U-component_of_CURRENTS"},"data":[0,0,0,0,0,0,0,0,0,0,0,0,0,0,0,0,0,0,0,0,0,0,0,0,0,0,0,0,0,0,0,0,0,0,0,0,0,0,0,0,0,0,0,0,0,0,0,0,0,0,0,0,0,0,0,0,0,0,0.2585,0.2585,0,0.2574,0.2574,0.2573,0.2565,0.2565,0.2565,0.2565,0.2555,0.2555,0.2554,0,0,0,0,0,0,0,0,0,0,0,0,0,0.2594,0.2594,0.2585,0.2585,0.2585,0.2574,0.2574,0.2573,0.2565,0.2565,0.2565,0.2565,0.2555,0.2555,0.2554,0,0,0,0,0,0,0,0,0,0,0,0,0,0.2585,0.2594,0.2585,0.2581,0.2581,0.2574,0.2574,0.2573,0.2565,0.2565,0.2565,0.2566,0.2555,0.2555,0.2554,0.2547,0,0,0.2553,0.2552,0,0,0,0,0,0,0,0,0.2586,0.2585,0.2582,0.2581,0.2581,0.2573,0.2573,0.2565,0.2565,0.2569,0.2565,0.2566,0.2562,0.2561,0.2556,0.2547,0.2546,0.2552,0.2552,0.2552,0.2552,0,0,0,0,0,0,0,0.2586,0.2585,0.2578,0.2582,0.2581,0.2579,0.2577,0.2571,0.2563,0.2568,0.2568,0.257,0.2562,0.2556,0.2556,0.2546,0.2553,0.2552,0.2552,0.2551,0.2552,0.2553,0,0,0,0,0,0,0.2592,0.2586,0.2579,0.2578,0.2586,0.2578,0.2577,0.2574,0.2563,0.2562,0.257,0.257,0.2557,0.2556,0.2555,0.2596,0.2552,0.2551,0.2551,0.2552,0.2552,0.2553,0,0,0,0,0,0,0.2592,0.2591,0.2579,0.2584,0.2582,0.2578,0.2575,0.2573,0.2571,0.2565,0.2564,0.2571,0.2557,0.2556,0.2557,0.2593,0.2551,0.2551,0.2552,0.2552,0.2553,0.2645,0,0,0,0,0,0,0.2592,0.2591,0.2593,0.2584,0.2582,0.259,0.2575,0.2573,0.2573,0.2573,0.2565,0.2564,0.2557,0.2558,0.2556,0.2592,0.255,0.2551,0.2552,0.2552,0.2641,0.2649,0.2655,0,0,0,0,0,0.2593,0.2598,0.2593,0.2592,0.2584,0.2591,0.259,0.2586,0.2573,0.2582,0.257,0.2564,0.2561,0.2558,0.2556,0.2592,0.2551,0.2552,0.2552,0.2639,0.2647,0.2655,0,0,0,0,0,0,0.2612,0.2598,0.2592,0.2595,0.2599,0.2591,0.2599,0.2588,0.2583,0.2584,0.2567,0.2566,0.259,0.2563,0.2559,0.259,0.2556,0.2556,0.2622,0.263,0.2636,0.2718,0.255,0,0,0,0,0,0.2615,0.261,0.2605,0.261,0.2613,0.2603,0.2604,0.2603,0.2597,0.2595,0.2584,0.2576,0.259,0.2587,0.2591,0.2596,0.2645,0.2616,0.2623,0.2629,0.2691,0.2797,0.2821,0.2556,0.2556,0.2556,0,0,0.2625,0.2617,0.2616,0.2613,0.2613,0.2641,0.2604,0.2615,0.2648,0.2595,0.2624,0.2606,0.2598,0.2621,0.2627,0.2603,0.2719,0.263,0.2636,0.2696,0.2801,0.2828,0.2851,0.2556,0.2556,0.2556,0,0,0.2651,0.2637,0.2645,0.2658,0.2664,0.2666,0.2671,0.2664,0.2672,0.2677,0.2671,0.2684,0.2654,0.2692,0.2698,0.274,0.2761,0.271,0.2806,0.2906,0.2931,0.2953,0.3018,0.3046,0.2702,0.2703,0.2703,0,0.2668,0.2677,0.2653,0.2681,0.27,0.2683,0.2717,0.2734,0.2729,0.2744,0.2697,0.272,0.271,0.2791,0.281,0.2767,0.281,0.2778,0.2922,0.2946,0.2968,0.3029,0.3059,0.2707,0.2707,0.2706,0.2706,0,0.271,0.2725,0.2738,0.2765,0.2783,0.281,0.2831,0.2845,0.2827,0.2836,0.2881,0.2867,0.2885,0.2874,0.2859,0.2998,0.2973,0.2932,0.2918,0.3002,0.3058,0.3088,0.2714,0.2712,0.2711,0.271,0,0,0.2728,0.2759,0.2765,0.2796,0.2829,0.2852,0.2909,0.2954,0.3003,0.2991,0.3053,0.3082,0.3066,0.3078,0.3059,0.3148,0.3318,0.3112,0.3115,0.3206,0.353,0.3411,0.343,0.3303,0.3309,0.3314,0.3498,0,0.2771,0.2831,0.2833,0.2909,0.2947,0.2959,0.3015,0.3059,0.3073,0.3128,0.3147,0.3196,0.3147,0.3155,0.3244,0.3303,0.3405,0.3272,0.3413,0.3418,0.3327,0.3465,0.3217,0.3353,0.3527,0.3532,0.3535,0,0.2817,0.2849,0.2919,0.2981,0.2998,0.3046,0.3126,0.3176,0.3258,0.3262,0.3318,0.3326,0.3454,0.3387,0.3583,0.3495,0.3551,0.3591,0.3597,0.3494,0.3356,0.33,0.34,0.324,0.3581,0.3577,0.3574,0,0.2845,0.2912,0.2966,0.2994,0.3063,0.31,0.3141,0.3217,0.3264,0.3371,0.3404,0.3521,0.3574,0.369,0.3738,0.3688,0.3945,0.3865,0.3822,0.3811,0.3638,0.3602,0.3635,0.4063,0.4062,0.4062,0.4061,0,0.2888,0.2931,0.2988,0.3024,0.31,0.314,0.3224,0.3274,0.3356,0.3425,0.3487,0.3561,0.3663,0.3775,0.3828,0.3913,0.4014,0.391,0.3884,0.3652,0.3616,0.3496,0.3444,0.4069,0.4067,0.4066,0.4065,0,0.2899,0.2936,0.3007,0.3086,0.3114,0.3172,0.3253,0.3309,0.339,0.3488,0.3527,0.3642,0.3774,0.3855,0.4033,0.4006,0.397,0.4111,0.381,0.3746,0.3513,0.3475,0.3477,0.3386,0.4112,0.4111,0.411,0,0.2898,0.2941,0.3043,0.3085,0.3119,0.3197,0.3242,0.3317,0.3369,0.3523,0.3568,0.3723,0.3779,0.3966,0.3964,0.4042,0.3937,0.3868,0.3741,0.3531,0.3472,0.3359,0.3274,0.3537,0.3531,0.3526,0.3522,0,0.291,0.2954,0.3019,0.3098,0.3157,0.32,0.3269,0.33,0.3388,0.3459,0.3553,0.3619,0.3753,0.3698,0.3776,0.3787,0.3614,0.3773,0.3654,0.3141,0.293,0.2811,0.3365,0.3481,0.3485,0.3488,0.349,0.3492,0.2919,0.2965,0.3052,0.3112,0.3166,0.3168,0.3151,0.3209,0.3245,0.3278,0.3437,0.3458,0.3446,0.3492,0.3486,0.3252,0.3351,0.3113,0.3123,0.3058,0.2854,0.3308,0.3319,0.3322,0.3325,0.3327,0.3329,0,0.2915,0.2973,0.3048,0.3097,0.309,0.3124,0.3134,0.3064,0.303,0.3123,0.3157,0.31,0.2987,0.2962,0.2757,0.2612,0.2503,0.252,0.2299,0.2282,0.2759,0.261,0.2346,0.2346,0.2346,0.2346,0.2346,0.2346,0.2924,0.2983,0.3013,0.2996,0.2996,0.2896,0.2847,0.2765,0.2775,0.2679,0.2642,0.2679,0.2616,0.2395,0.2127,0.2071,0.1926,0.1798,0.19,0.2183,0.2237,0.2289,0.2135,0.1775,0.1775,0.1252,0.1248,0.1244]},{"header":{"parameterUnit":"m.s-1","parameterCategory":2,"la1":30.2991,"la2":30.254,"lo1":-89.0895,"lo2":-89.0444,"dy":0.0017,"dx":0.0017,"nx":28,"ny":28,"refTime":"2025-09-05T09:00:00:Z","depth":"0","parameterNumber":3,"parameterNumberName":"V-component_of_CURRENTS"},"data":[0,0,0,0,0,0,0,0,0,0,0,0,0,0,0,0,0,0,0,0,0,0,0,0,0,0,0,0,0,0,0,0,0,0,0,0,0,0,0,0,0,0,0,0,0,0,0,0,0,0,0,0,0,0,0,0,0,0,0.0117,0.0117,0,0.0071,0.007,0.007,0.0039,0.0039,0.0038,0.0038,-0.0011,-0.0012,-0.0013,0,0,0,0,0,0,0,0,0,0,0,0,0,0.0165,0.0164,0.0117,0.0117,0.0116,0.0071,0.007,0.007,0.0039,0.0039,0.0038,0.0038,-0.001,-0.0011,-0.0013,0,0,0,0,0,0,0,0,0,0,0,0,0,0.0135,0.0164,0.0117,0.0094,0.0092,0.0071,0.007,0.0069,0.0039,0.0039,0.0038,0.0038,-0.001,-0.0011,-0.0013,-0.0014,0,0,-0.0018,-0.0018,0,0,0,0,0,0,0,0,0.0136,0.0133,0.0098,0.0096,0.0093,0.0059,0.0069,0.0041,0.0039,0.006,0.0038,0.0038,0.0012,0.0009,0.0003,-0.0016,-0.0018,-0.0018,-0.0019,-0.0019,-0.002,0,0,0,0,0,0,0,0.0138,0.0135,0.01,0.0098,0.0094,0.0081,0.0077,0.0064,0.004,0.0058,0.0056,0.0049,0.0011,0.0004,0.0001,-0.0019,-0.0018,-0.0019,-0.002,-0.0021,-0.0043,-0.0043,0,0,0,0,0,0,0.0144,0.0137,0.0101,0.0098,0.0113,0.0081,0.0076,0.0071,0.004,0.0035,0.005,0.0048,0.0007,0.0003,-0.0001,0.0026,-0.0019,-0.0021,-0.0022,-0.0044,-0.0043,-0.0043,0,0,0,0,0,0,0.0145,0.0141,0.0103,0.0116,0.011,0.0081,0.0076,0.0071,0.0064,0.0033,0.0028,0.0048,0.0006,0.0001,-0.0007,0.0022,-0.0021,-0.0023,-0.0044,-0.0043,-0.0043,0.006,0,0,0,0,0,0,0.0146,0.0142,0.0145,0.0116,0.0109,0.0099,0.0076,0.007,0.006,0.0058,0.0031,0.0025,0.0006,-0.0004,-0.0008,0.002,-0.0024,-0.0044,-0.0044,-0.0043,0.0056,0.0064,0.007,0,0,0,0,0,0.0148,0.0159,0.0145,0.0141,0.0113,0.01,0.0095,0.0073,0.0061,0.0065,0.0045,0.0026,-0.0004,-0.0005,-0.001,0.0018,-0.0045,-0.0044,-0.0043,0.0053,0.0062,0.007,0,0,0,0,0,0,0.0185,0.0156,0.014,0.0142,0.0123,0.0094,0.0097,0.0078,0.0065,0.0063,0.0033,0.0027,0.0031,0.0003,0.0002,0.0009,-0.0028,-0.0028,0.0046,0.0055,0.0062,0.0111,-0.0025,0,0,0,0,0,0.0193,0.019,0.0161,0.0162,0.0156,0.0126,0.0119,0.0102,0.0084,0.0077,0.0056,0.0035,0.003,0.0025,0.0008,0.0015,0.0023,0.0026,0.0033,0.004,0.0074,0.0129,0.0146,-0.004,-0.004,-0.004,0,0,0.0204,0.019,0.0187,0.0169,0.0154,0.016,0.0122,0.0115,0.0127,0.0075,0.0086,0.0059,0.0034,0.0044,0.0043,0.0027,0.0087,0.004,0.0047,0.0078,0.0132,0.015,0.0167,-0.004,-0.004,-0.004,0,0,0.0236,0.0218,0.0229,0.022,0.0201,0.0186,0.0186,0.0159,0.0156,0.0153,0.0127,0.0128,0.0095,0.0105,0.0101,0.0137,0.0123,0.0112,0.0196,0.0249,0.0266,0.0281,0.0286,0.0301,0.0118,0.0119,0.0119,0,0.0252,0.0265,0.0231,0.0245,0.0251,0.0203,0.0228,0.0218,0.0191,0.0212,0.0167,0.0172,0.0137,0.0194,0.0196,0.0161,0.0169,0.0171,0.0264,0.0279,0.0294,0.0295,0.0311,0.0124,0.0123,0.0123,0.0122,0,0.0294,0.0306,0.0316,0.0319,0.032,0.0331,0.0314,0.0319,0.03,0.0297,0.0331,0.0293,0.0307,0.0284,0.0247,0.033,0.0293,0.0269,0.0255,0.032,0.0315,0.0329,0.0131,0.0129,0.0128,0.0126,0,0,0.0333,0.0344,0.035,0.037,0.0364,0.0372,0.0403,0.0432,0.0474,0.0446,0.0516,0.0491,0.0478,0.0474,0.0436,0.0468,0.0543,0.0413,0.0413,0.044,0.0634,0.0573,0.0581,0.0541,0.0545,0.0548,0.0581,0,0.0382,0.0429,0.0424,0.0476,0.0501,0.0488,0.0527,0.0546,0.0551,0.06,0.0596,0.0628,0.0549,0.0559,0.0587,0.0562,0.059,0.0534,0.0548,0.0548,0.0507,0.0601,0.0591,0.0619,0.0595,0.0597,0.0599,0,0.0435,0.046,0.0522,0.0569,0.0583,0.0608,0.0677,0.0704,0.076,0.077,0.0814,0.0799,0.0852,0.0763,0.0798,0.0766,0.0717,0.0684,0.0685,0.0614,0.0517,0.0553,0.0645,0.0541,0.062,0.0619,0.0617,0,0.0489,0.0537,0.0593,0.0606,0.0646,0.0687,0.0714,0.0765,0.0813,0.0889,0.0939,0.0983,0.1015,0.0995,0.0906,0.0869,0.0928,0.0867,0.0768,0.0759,0.0751,0.0736,0.0773,0.0909,0.0909,0.0909,0.0909,0,0.0552,0.0596,0.0623,0.0652,0.0726,0.0742,0.0831,0.0862,0.0943,0.1034,0.1036,0.1118,0.1079,0.1088,0.0992,0.0933,0.1001,0.082,0.0792,0.0777,0.0765,0.0669,0.0602,0.091,0.091,0.0909,0.0909,0,0.0599,0.0619,0.0676,0.0728,0.0748,0.0799,0.0879,0.0949,0.1018,0.1144,0.1181,0.125,0.1271,0.1194,0.1159,0.1047,0.0925,0.0931,0.0888,0.0854,0.0652,0.059,0.0612,0.0574,0.0855,0.0854,0.0853,0,0.0627,0.0663,0.0715,0.0746,0.0769,0.0841,0.0899,0.0974,0.106,0.1226,0.1306,0.1369,0.143,0.1346,0.1177,0.1034,0.0914,0.0891,0.0823,0.068,0.0591,0.055,0.0514,0.0834,0.0833,0.0832,0.0831,0,0.0673,0.0688,0.0725,0.0782,0.084,0.0918,0.1014,0.1093,0.1219,0.1339,0.1504,0.1573,0.151,0.1394,0.1177,0.1052,0.0822,0.0869,0.077,0.0636,0.0553,0.0488,0.0728,0.0825,0.0826,0.0826,0.0827,0.0827,0.0695,0.0719,0.0762,0.082,0.0891,0.1001,0.1082,0.1206,0.136,0.156,0.1627,0.1757,0.1566,0.1294,0.1109,0.0754,0.0777,0.0639,0.059,0.0573,0.0509,0.0707,0.0735,0.0735,0.0735,0.0735,0.0735,0,0.0713,0.0746,0.08,0.0881,0.0977,0.1008,0.1167,0.1266,0.1453,0.1637,0.1779,0.1769,0.151,0.1216,0.0752,0.0524,0.0452,0.0399,0.0359,0.0346,0.0576,0.0544,0.0474,0.0474,0.0475,0.0475,0.0475,0.0475,0.0722,0.077,0.08,0.0945,0.1017,0.1153,0.1249,0.1388,0.1537,0.173,0.1827,0.1888,0.1643,0.0878,0.0378,0.0277,0.0145,0.0113,0.0055,0.0203,0.0222,0.024,0.0197,0.0056,0.0055,-0.0141,-0.0143,-0.0145]}],[{"header":{"parameterUnit":"m.s-1","parameterCategory":2,"la1":30.2991,"la2":30.254,"lo1":-89.0895,"lo2":-89.0444,"dy":0.0017,"dx":0.0017,"nx":28,"ny":28,"refTime":"2025-09-05T09:00:00:Z","depth":"2","parameterNumber":2,"parameterNumberName":"U-component_of_CURRENTS"},"data":[0,0,0,0,0,0,0,0,0,0,0,0,0,0,0,0,0,0,0,0,0,0,0,0,0,0,0,0,0,0,0,0,0,0,0,0,0,0,0,0,0,0,0,0,0,0,0,0,0,0,0,0,0,0,0,0,0,0,0.2052,0.2052,0,0.2059,0.2059,0.2058,0.2077,0.2078,0.2079,0.208,0.2091,0.2091,0.209,0,0,0,0,0,0,0,0,0,0,0,0,0,0.2053,0.2052,0.2052,0.2052,0.2053,0.2059,0.2059,0.2058,0.2077,0.2078,0.208,0.2081,0.2091,0.2091,0.209,0,0,0,0,0,0,0,0,0,0,0,0,0,0.2048,0.2052,0.2052,0.2069,0.2071,0.206,0.2059,0.2058,0.2077,0.2078,0.208,0.2081,0.2092,0.2091,0.209,0.2051,0,0,0.2086,0.2086,0,0,0,0,0,0,0,0,0.2049,0.2047,0.2065,0.2068,0.207,0.2075,0.2064,0.2059,0.2076,0.2067,0.208,0.2082,0.209,0.2089,0.2076,0.2052,0.2052,0.2086,0.2086,0.2085,0.2085,0,0,0,0,0,0,0,0.2049,0.2047,0.2047,0.2066,0.2069,0.2076,0.2077,0.2062,0.2064,0.2068,0.2071,0.2083,0.209,0.2077,0.2077,0.2053,0.2086,0.2085,0.2085,0.2084,0.211,0.2112,0,0,0,0,0,0,0.206,0.2047,0.2047,0.2048,0.2071,0.2075,0.2076,0.2066,0.2064,0.2067,0.2081,0.2084,0.2078,0.2078,0.2078,0.2134,0.2085,0.2084,0.2084,0.2109,0.2111,0.2112,0,0,0,0,0,0,0.206,0.2059,0.2047,0.2055,0.2055,0.2075,0.2063,0.2066,0.2075,0.2076,0.2078,0.2093,0.208,0.2079,0.2092,0.2131,0.2084,0.2083,0.2108,0.211,0.2111,0.2183,0,0,0,0,0,0,0.2059,0.2058,0.2059,0.2055,0.2056,0.2062,0.2063,0.2065,0.2082,0.2086,0.2085,0.2087,0.2081,0.2094,0.2091,0.2129,0.2082,0.2106,0.2108,0.2111,0.2179,0.2187,0.2194,0,0,0,0,0,0.2059,0.2059,0.2058,0.206,0.2054,0.2063,0.2063,0.2078,0.2082,0.209,0.2094,0.2088,0.2109,0.2094,0.209,0.2129,0.2105,0.2108,0.2111,0.2175,0.2185,0.2194,0,0,0,0,0,0,0.206,0.2062,0.2061,0.2061,0.2072,0.207,0.2082,0.2085,0.209,0.2102,0.2091,0.2092,0.2127,0.2109,0.2093,0.2145,0.2111,0.2113,0.2161,0.217,0.2178,0.2232,0.2081,0,0,0,0,0,0.2059,0.206,0.2065,0.2067,0.2073,0.2075,0.2083,0.2096,0.2102,0.2106,0.2101,0.2108,0.213,0.2136,0.2143,0.2153,0.2181,0.218,0.2187,0.2194,0.2237,0.2294,0.2311,0.2122,0.2122,0.2122,0,0,0.2065,0.2064,0.2067,0.2068,0.2073,0.2099,0.2082,0.2106,0.2131,0.2105,0.2127,0.2133,0.214,0.217,0.2183,0.2162,0.2262,0.2198,0.2203,0.2244,0.2299,0.2318,0.2334,0.2124,0.2124,0.2123,0,0,0.2081,0.207,0.2082,0.21,0.2122,0.2125,0.2137,0.2143,0.2148,0.2163,0.2173,0.2211,0.2196,0.2236,0.2249,0.23,0.2304,0.2289,0.2367,0.2421,0.2438,0.2453,0.2512,0.2532,0.2287,0.2288,0.2288,0,0.2096,0.2095,0.209,0.2118,0.2139,0.2142,0.2173,0.2181,0.2192,0.2201,0.2185,0.2239,0.2243,0.2322,0.2353,0.2324,0.235,0.2329,0.2433,0.2449,0.2463,0.2521,0.2542,0.2291,0.2291,0.2291,0.229,0,0.2123,0.2136,0.2148,0.2179,0.2203,0.2227,0.225,0.2264,0.2262,0.2272,0.2329,0.2345,0.2385,0.2393,0.2392,0.2501,0.2486,0.244,0.2414,0.2487,0.2542,0.2563,0.2297,0.2295,0.2294,0.2293,0,0,0.2124,0.2158,0.2165,0.2183,0.2235,0.2251,0.2301,0.2331,0.2373,0.2386,0.2442,0.25,0.2516,0.2537,0.2548,0.2609,0.2733,0.2578,0.2579,0.2647,0.2864,0.2675,0.2679,0.2696,0.27,0.2703,0.2862,0,0.2145,0.219,0.2205,0.2259,0.2286,0.2314,0.235,0.2393,0.2427,0.248,0.2523,0.2591,0.2566,0.2613,0.2668,0.273,0.2792,0.2696,0.2778,0.2782,0.2611,0.2698,0.2471,0.2578,0.2882,0.2886,0.2888,0,0.2164,0.2191,0.2238,0.2281,0.2294,0.2345,0.2414,0.2444,0.2533,0.2563,0.265,0.2688,0.2819,0.2768,0.2921,0.2857,0.2882,0.2914,0.2919,0.274,0.263,0.2553,0.2604,0.2923,0.292,0.2918,0.2915,0,0.2146,0.2207,0.2232,0.2258,0.2319,0.2358,0.2396,0.2484,0.251,0.2656,0.2719,0.2838,0.2922,0.2988,0.3034,0.3002,0.3174,0.312,0.2978,0.2966,0.2791,0.2754,0.3228,0.3228,0.3228,0.3227,0.3227,0,0.2136,0.2162,0.2239,0.2258,0.2292,0.2364,0.2429,0.2477,0.2594,0.2654,0.2771,0.2876,0.2983,0.3068,0.3095,0.3095,0.3214,0.3035,0.3002,0.2804,0.2768,0.3072,0.3052,0.3233,0.3232,0.3231,0.323,0,0.2102,0.2133,0.2174,0.226,0.2278,0.2315,0.2412,0.2475,0.2596,0.2702,0.276,0.2937,0.3058,0.3111,0.3238,0.3157,0.319,0.3146,0.2903,0.2836,0.2944,0.2926,0.3053,0.3048,0.3043,0.304,0.3036,0,0.2072,0.2098,0.217,0.2196,0.2239,0.2311,0.2353,0.2449,0.2521,0.2733,0.2775,0.2954,0.301,0.3101,0.3041,0.3027,0.3116,0.2787,0.2668,0.2976,0.2932,0.2921,0.2909,0.2493,0.2485,0.2479,0.2475,0,0.2042,0.2082,0.2119,0.2174,0.2221,0.2281,0.2367,0.2391,0.2518,0.2589,0.272,0.2799,0.2878,0.276,0.2714,0.2682,0.2765,0.2658,0.3089,0.2524,0.2446,0.2402,0.241,0.2422,0.2427,0.2431,0.2434,0.2436,0.2024,0.2042,0.2104,0.2137,0.2206,0.228,0.2296,0.2371,0.2398,0.2443,0.2532,0.2514,0.2549,0.2347,0.2278,0.2235,0.2418,0.2318,0.2339,0.2365,0.2223,0.2136,0.2031,0.2034,0.2037,0.2039,0.2041,0,0.1982,0.2017,0.2071,0.211,0.2172,0.2252,0.2311,0.226,0.2236,0.2233,0.2207,0.1943,0.1861,0.1932,0.1763,0.1722,0.1741,0.1671,0.1698,0.1751,0.1798,0.1629,0.1279,0.1277,0.1274,0.1272,0,0,0.1962,0.1961,0.1978,0.2038,0.2125,0.2164,0.2189,0.2101,0.2032,0.1821,0.1729,0.1737,0.1832,0.1504,0.1466,0.1356,0.1547,0.1302,0.1915,0.1999,0.2043,0.2172,0.1969,0,0,0,0,0]},{"header":{"parameterUnit":"m.s-1","parameterCategory":2,"la1":30.2991,"la2":30.254,"lo1":-89.0895,"lo2":-89.0444,"dy":0.0017,"dx":0.0017,"nx":28,"ny":28,"refTime":"2025-09-05T09:00:00:Z","depth":"2","parameterNumber":3,"parameterNumberName":"V-component_of_CURRENTS"},"data":[0,0,0,0,0,0,0,0,0,0,0,0,0,0,0,0,0,0,0,0,0,0,0,0,0,0,0,0,0,0,0,0,0,0,0,0,0,0,0,0,0,0,0,0,0,0,0,0,0,0,0,0,0,0,0,0,0,0,0.0076,0.0076,0,0.0052,0.0052,0.0052,0.0034,0.0033,0.0033,0.0033,-0.0,-0.0001,-0.0001,0,0,0,0,0,0,0,0,0,0,0,0,0,0.0098,0.0098,0.0076,0.0076,0.0075,0.0052,0.0052,0.0052,0.0034,0.0033,0.0033,0.0033,-0.0,-0.0001,-0.0001,0,0,0,0,0,0,0,0,0,0,0,0,0,0.0085,0.0098,0.0076,0.0062,0.0061,0.0052,0.0052,0.0051,0.0034,0.0033,0.0033,0.0033,0.0,-0.0001,-0.0002,0.0003,0,0,-0.0004,-0.0005,0,0,0,0,0,0,0,0,0.0086,0.0084,0.0065,0.0063,0.0061,0.0044,0.0047,0.0034,0.0034,0.0046,0.0033,0.0032,0.0013,0.0011,0.001,0.0001,-0.0,-0.0004,-0.0005,-0.0005,-0.0005,0,0,0,0,0,0,0,0.0087,0.0085,0.0068,0.0064,0.0062,0.0054,0.0052,0.0045,0.0034,0.0045,0.0043,0.0038,0.0012,0.0011,0.0009,-0.0001,-0.0004,-0.0005,-0.0006,-0.0006,-0.0024,-0.0024,0,0,0,0,0,0,0.0087,0.0086,0.0069,0.0068,0.007,0.0054,0.0051,0.0051,0.0034,0.003,0.0038,0.0037,0.0013,0.001,0.0008,0.0015,-0.0005,-0.0006,-0.0007,-0.0024,-0.0024,-0.0024,0,0,0,0,0,0,0.0087,0.0086,0.007,0.0074,0.0071,0.0054,0.0054,0.0051,0.0046,0.0028,0.0025,0.0036,0.0012,0.0009,0.0,0.0013,-0.0006,-0.0007,-0.0024,-0.0024,-0.0024,0.0027,0,0,0,0,0,0,0.0088,0.0086,0.0088,0.0075,0.0071,0.0065,0.0054,0.0051,0.0043,0.0041,0.0025,0.0022,0.0012,0.0002,-0.0,0.0012,-0.0008,-0.0024,-0.0024,-0.0024,0.0025,0.0029,0.0032,0,0,0,0,0,0.0089,0.0093,0.0089,0.0086,0.0074,0.0065,0.0063,0.005,0.0043,0.0044,0.0032,0.0022,0.0001,0.0001,-0.0001,0.0011,-0.0024,-0.0024,-0.0024,0.0024,0.0028,0.0031,0,0,0,0,0,0,0.0101,0.0091,0.0086,0.0086,0.0076,0.0061,0.006,0.0051,0.0043,0.0041,0.0025,0.0021,0.0017,0.0004,0.0005,0.0004,-0.0014,-0.0014,0.0023,0.0027,0.003,0.0045,-0.0009,0,0,0,0,0,0.0106,0.0108,0.0094,0.0094,0.009,0.0076,0.0071,0.0062,0.0051,0.0047,0.0035,0.0023,0.0017,0.0013,0.0002,0.0004,-0.0005,0.0008,0.0011,0.0014,0.0024,0.0023,0.0027,-0.0023,-0.0023,-0.0023,0,0,0.0109,0.0104,0.0104,0.0097,0.0089,0.0092,0.0072,0.0066,0.007,0.0045,0.0048,0.0033,0.0018,0.002,0.0018,0.0011,0.0022,0.0014,0.0017,0.0025,0.0023,0.0028,0.0033,-0.0023,-0.0023,-0.0023,0,0,0.012,0.0114,0.0121,0.0116,0.0106,0.0101,0.0099,0.0085,0.0082,0.0079,0.0065,0.006,0.0044,0.0045,0.0041,0.0055,0.0038,0.0045,0.0079,0.0078,0.0083,0.0087,0.0077,0.008,0.0049,0.0049,0.0049,0,0.0124,0.0132,0.0121,0.0127,0.0127,0.0107,0.0116,0.0112,0.0097,0.0101,0.0083,0.0077,0.006,0.0079,0.008,0.0066,0.0056,0.0069,0.0084,0.0088,0.0091,0.0081,0.0083,0.0052,0.0052,0.0051,0.0051,0,0.0141,0.0147,0.015,0.0156,0.0157,0.0158,0.0152,0.0155,0.0146,0.0137,0.0145,0.0128,0.0127,0.0119,0.0102,0.0121,0.0103,0.0089,0.008,0.01,0.0087,0.0089,0.0055,0.0054,0.0054,0.0053,0,0,0.0157,0.0162,0.0164,0.0173,0.0172,0.0176,0.0193,0.0201,0.0219,0.0199,0.0225,0.0207,0.0195,0.019,0.0176,0.0172,0.0179,0.0141,0.0139,0.0141,0.017,0.0138,0.0137,0.0166,0.0167,0.0168,0.0151,0,0.0175,0.0193,0.0194,0.0216,0.0226,0.0225,0.025,0.0255,0.0251,0.0269,0.0256,0.0267,0.0224,0.0234,0.0222,0.0203,0.0186,0.0184,0.0142,0.0141,0.0118,0.0139,0.0158,0.0143,0.0152,0.0153,0.0153,0,0.0196,0.0206,0.0229,0.0257,0.0264,0.0277,0.0316,0.0334,0.0351,0.0354,0.0358,0.0342,0.0352,0.0304,0.0278,0.0279,0.0223,0.0193,0.0192,0.0148,0.0113,0.0124,0.0146,0.0155,0.0155,0.0155,0.0155,0,0.0216,0.0235,0.0257,0.0261,0.0288,0.0309,0.033,0.0354,0.0387,0.0411,0.0432,0.0428,0.0455,0.0388,0.0322,0.0302,0.0282,0.0248,0.0161,0.0157,0.0159,0.0155,0.0205,0.0205,0.0205,0.0206,0.0206,0,0.0238,0.0257,0.0265,0.0276,0.0318,0.0331,0.0382,0.0406,0.0453,0.0513,0.0477,0.0536,0.0477,0.0454,0.0357,0.0279,0.0309,0.0174,0.0156,0.0175,0.0173,0.017,0.0166,0.0205,0.0205,0.0205,0.0205,0,0.026,0.0263,0.029,0.0315,0.0326,0.0358,0.0416,0.0462,0.0496,0.0578,0.0596,0.0637,0.0631,0.0533,0.0464,0.0349,0.0257,0.0206,0.0229,0.0213,0.0118,0.0117,0.0116,0.0115,0.0114,0.0113,0.0112,0,0.0276,0.029,0.0315,0.0333,0.0342,0.0386,0.0432,0.0483,0.055,0.0654,0.0717,0.0737,0.078,0.065,0.0478,0.0304,0.027,0.0176,0.0131,0.0129,0.0112,0.0112,0.0112,0.0153,0.0153,0.0152,0.0152,0,0.0311,0.0316,0.0336,0.0372,0.0408,0.0455,0.0528,0.0596,0.0694,0.0789,0.0937,0.0976,0.0857,0.0737,0.0477,0.0349,0.0205,0.0163,0.0181,0.0165,0.0161,0.0144,0.0144,0.015,0.015,0.015,0.015,0.0151,0.0341,0.0363,0.039,0.0427,0.0469,0.0544,0.0614,0.0731,0.0883,0.1045,0.1073,0.1117,0.0948,0.0637,0.0436,0.02,0.0199,0.0096,0.0098,0.0101,0.0101,0.0094,0.0071,0.0071,0.007,0.007,0.007,0,0.0391,0.0412,0.0447,0.0509,0.0578,0.0574,0.0703,0.0802,0.1021,0.1122,0.1232,0.1047,0.0893,0.0673,0.0328,0.012,0.011,0.0053,0.0091,0.0094,0.0097,0.0098,0.0066,0.0066,0.0065,0.0065,0,0,0.0421,0.0469,0.0486,0.0601,0.0647,0.0748,0.0827,0.0979,0.1076,0.1206,0.122,0.1184,0.0933,0.0678,0.0428,0.0248,0.0209,0.0205,0.0228,0.0305,0.031,0.014,0.0147,0,0,0,0,0]}],[{"header":{"parameterUnit":"m.s-1","parameterCategory":2,"la1":30.2991,"la2":30.254,"lo1":-89.0895,"lo2":-89.0444,"dy":0.0017,"dx":0.0017,"nx":28,"ny":28,"refTime":"2025-09-05T09:00:00:Z","depth":"4","parameterNumber":2,"parameterNumberName":"U-component_of_CURRENTS"},"data":[0,0,0,0,0,0,0,0,0,0,0,0,0,0,0,0,0,0,0,0,0,0,0,0,0,0,0,0,0,0,0,0,0,0,0,0,0,0,0,0,0,0,0,0,0,0,0,0,0,0,0,0,0,0,0,0,0,0,0.1077,0.1077,0,0.1102,0.1102,0.1102,0.1119,0.1119,0.1119,0.112,0.1156,0.1156,0.1157,0,0,0,0,0,0,0,0,0,0,0,0,0,0.1057,0.1057,0.1076,0.1077,0.1077,0.1102,0.1102,0.1102,0.1119,0.1119,0.112,0.112,0.1155,0.1156,0.1157,0,0,0,0,0,0,0,0,0,0,0,0,0,0.1071,0.1057,0.1076,0.109,0.1091,0.1102,0.1102,0.1102,0.1119,0.1119,0.112,0.112,0.1155,0.1156,0.1157,0.1156,0,0,0.1161,0.1161,0,0,0,0,0,0,0,0,0.107,0.1071,0.1087,0.1089,0.1091,0.1109,0.1108,0.1121,0.1119,0.1107,0.112,0.112,0.1142,0.1144,0.1145,0.1158,0.1159,0.1161,0.1161,0.1162,0.1162,0,0,0,0,0,0,0,0.1069,0.107,0.1085,0.1088,0.109,0.11,0.1102,0.1111,0.1121,0.1108,0.1109,0.1115,0.1143,0.1144,0.1147,0.116,0.1161,0.1162,0.1162,0.1163,0.1229,0.123,0,0,0,0,0,0,0.1068,0.1069,0.1084,0.1086,0.1083,0.11,0.1102,0.1101,0.112,0.1124,0.1114,0.1115,0.1142,0.1145,0.1148,0.1205,0.1162,0.1163,0.1163,0.1228,0.1229,0.123,0,0,0,0,0,0,0.1067,0.1069,0.1083,0.108,0.1083,0.11,0.1099,0.1102,0.1128,0.1126,0.1129,0.1141,0.1143,0.1146,0.1176,0.1205,0.1163,0.1164,0.1226,0.1228,0.123,0.1283,0,0,0,0,0,0,0.1066,0.1068,0.1084,0.1079,0.1083,0.1098,0.1099,0.1102,0.113,0.1132,0.1149,0.1151,0.1143,0.1175,0.1177,0.1205,0.1165,0.1225,0.1227,0.1229,0.128,0.1287,0.1292,0,0,0,0,0,0.1065,0.1077,0.1085,0.1088,0.1099,0.1099,0.1101,0.1114,0.1131,0.114,0.1159,0.1152,0.119,0.1177,0.1179,0.1208,0.1224,0.1226,0.1229,0.1278,0.1286,0.1292,0,0,0,0,0,0,0.1067,0.108,0.1088,0.1101,0.1106,0.1102,0.112,0.113,0.1152,0.1164,0.1166,0.1169,0.121,0.12,0.1185,0.1233,0.1206,0.1209,0.1242,0.125,0.1255,0.1273,0.1166,0,0,0,0,0,0.1078,0.1097,0.1098,0.111,0.1117,0.1126,0.1137,0.1142,0.1154,0.1165,0.1183,0.12,0.1218,0.1227,0.124,0.1263,0.1265,0.1283,0.1289,0.1295,0.1311,0.1346,0.1357,0.1238,0.1238,0.1238,0,0,0.1083,0.1092,0.1104,0.1115,0.1123,0.1125,0.1133,0.115,0.1166,0.1165,0.121,0.1228,0.1231,0.1261,0.1277,0.1258,0.1325,0.1298,0.1302,0.1316,0.135,0.1362,0.1372,0.124,0.124,0.124,0,0,0.1088,0.1109,0.1124,0.1127,0.1144,0.1146,0.1157,0.1173,0.1199,0.1235,0.1245,0.1283,0.1307,0.1316,0.1321,0.1368,0.1362,0.1374,0.1413,0.1448,0.1458,0.1467,0.1465,0.1473,0.1369,0.137,0.137,0,0.1099,0.1107,0.1127,0.1132,0.1134,0.1157,0.1157,0.1186,0.1214,0.1247,0.1257,0.1327,0.1333,0.137,0.1391,0.1384,0.1394,0.1385,0.1457,0.1466,0.1474,0.147,0.1479,0.1372,0.1372,0.1372,0.1372,0,0.1099,0.1113,0.112,0.1134,0.114,0.1145,0.117,0.1215,0.1258,0.1284,0.1358,0.138,0.1421,0.143,0.143,0.1492,0.1475,0.1466,0.1439,0.149,0.1481,0.1489,0.1377,0.1376,0.1375,0.1374,0,0,0.1101,0.112,0.1125,0.1122,0.114,0.1135,0.1189,0.1231,0.1277,0.1339,0.1399,0.1454,0.149,0.15,0.151,0.1545,0.1608,0.1541,0.1542,0.1541,0.167,0.1552,0.1549,0.1621,0.1623,0.1625,0.1632,0,0.1097,0.1098,0.1114,0.1111,0.1104,0.1144,0.1185,0.1233,0.1294,0.1364,0.143,0.1487,0.1506,0.1539,0.1583,0.1613,0.1637,0.1606,0.162,0.162,0.1512,0.1557,0.1632,0.1638,0.164,0.1642,0.1642,0,0.1083,0.1085,0.1083,0.1093,0.1098,0.111,0.1173,0.1218,0.1326,0.1387,0.1473,0.1519,0.1605,0.1605,0.1692,0.1678,0.1687,0.1698,0.1698,0.1579,0.1519,0.1582,0.1657,0.1656,0.1655,0.1654,0.1653,0,0.1038,0.1056,0.1054,0.1052,0.1079,0.1109,0.1143,0.1231,0.1284,0.1413,0.1454,0.1566,0.1626,0.1681,0.1725,0.1722,0.1797,0.1781,0.1672,0.1662,0.1741,0.1732,0.1829,0.1829,0.1829,0.1829,0.1829,0,0.0999,0.0995,0.104,0.1026,0.1038,0.108,0.113,0.1193,0.1301,0.1356,0.1463,0.1509,0.1658,0.1711,0.174,0.1732,0.1808,0.1691,0.1667,0.1759,0.1752,0.1745,0.1736,0.1829,0.1829,0.1829,0.1829,0,0.0924,0.0963,0.0945,0.0985,0.1008,0.1012,0.1099,0.1143,0.1253,0.133,0.1375,0.1504,0.1584,0.1668,0.176,0.1728,0.1739,0.1705,0.1787,0.1765,0.1572,0.1565,0.159,0.1586,0.1583,0.158,0.1578,0,0.0881,0.0869,0.0895,0.0889,0.0905,0.095,0.0991,0.1115,0.1165,0.1301,0.132,0.1435,0.1511,0.1536,0.1639,0.1674,0.1657,0.1641,0.1628,0.1579,0.1554,0.1552,0.1549,0.1572,0.1571,0.1571,0.157,0,0.0778,0.0798,0.0783,0.0783,0.0806,0.0835,0.0904,0.094,0.1096,0.1191,0.1257,0.1311,0.1386,0.1477,0.1516,0.1534,0.1651,0.1606,0.1613,0.1601,0.1558,0.1536,0.1537,0.1558,0.156,0.1561,0.1562,0,0.0708,0.0666,0.0669,0.0664,0.0676,0.07,0.0765,0.0843,0.0924,0.1101,0.1122,0.1239,0.1375,0.1399,0.1428,0.1453,0.1437,0.1398,0.1415,0.1428,0.1376,0.1298,0.1207,0,0,0,0,0,0.0632,0.0586,0.0557,0.0536,0.0542,0.0581,0.069,0.078,0.0944,0.0962,0.1052,0.1119,0.1194,0.1251,0.1248,0.134,0.1428,0.1327,0.1386,0.1496,0.1509,0.1464,0,0,0,0,0,0,0.0583,0.0535,0.0522,0.0442,0.0422,0.0447,0.0529,0.065,0.0688,0.0853,0.0906,0.1025,0.1116,0.1177,0.1212,0.1232,0.1243,0.1412,0.1409,0.1488,0.15,0.1511,0.147,0,0,0,0,0]},{"header":{"parameterUnit":"m.s-1","parameterCategory":2,"la1":30.2991,"la2":30.254,"lo1":-89.0895,"lo2":-89.0444,"dy":0.0017,"dx":0.0017,"nx":28,"ny":28,"refTime":"2025-09-05T09:00:00:Z","depth":"4","parameterNumber":3,"parameterNumberName":"V-component_of_CURRENTS"},"data":[0,0,0,0,0,0,0,0,0,0,0,0,0,0,0,0,0,0,0,0,0,0,0,0,0,0,0,0,0,0,0,0,0,0,0,0,0,0,0,0,0,0,0,0,0,0,0,0,0,0,0,0,0,0,0,0,0,0,0.013,0.013,0,0.0127,0.0127,0.0127,0.0135,0.0135,0.0136,0.0136,0.0138,0.0137,0.0137,0,0,0,0,0,0,0,0,0,0,0,0,0,0.0128,0.0129,0.013,0.013,0.0129,0.0127,0.0127,0.0127,0.0135,0.0135,0.0136,0.0136,0.0138,0.0137,0.0137,0,0,0,0,0,0,0,0,0,0,0,0,0,0.0129,0.0129,0.013,0.0133,0.0133,0.0127,0.0127,0.0127,0.0135,0.0135,0.0136,0.0136,0.0138,0.0137,0.0137,0.0131,0,0,0.0137,0.0137,0,0,0,0,0,0,0,0,0.0129,0.0129,0.0132,0.0132,0.0132,0.0131,0.0127,0.0128,0.0135,0.0135,0.0136,0.0136,0.0135,0.0135,0.0135,0.0131,0.0132,0.0137,0.0137,0.0137,0.0137,0,0,0,0,0,0,0,0.0129,0.0129,0.013,0.0132,0.0132,0.0129,0.013,0.0127,0.0135,0.0135,0.0136,0.0134,0.0135,0.0135,0.0135,0.0132,0.0137,0.0137,0.0137,0.0137,0.0138,0.0138,0,0,0,0,0,0,0.0127,0.0129,0.013,0.0129,0.013,0.0129,0.0129,0.0132,0.0135,0.0135,0.0133,0.0134,0.0136,0.0136,0.0135,0.0143,0.0137,0.0136,0.0136,0.0138,0.0138,0.0138,0,0,0,0,0,0,0.0127,0.0128,0.013,0.0128,0.0128,0.0129,0.0131,0.0132,0.0134,0.0133,0.0134,0.0135,0.0136,0.0136,0.0138,0.0142,0.0136,0.0136,0.0138,0.0138,0.0138,0.0148,0,0,0,0,0,0,0.0127,0.0128,0.0131,0.0128,0.0128,0.0129,0.0131,0.0131,0.0131,0.0132,0.0134,0.0135,0.0136,0.0138,0.0138,0.0142,0.0136,0.0138,0.0138,0.0138,0.0148,0.0149,0.015,0,0,0,0,0,0.0127,0.0129,0.0131,0.0131,0.0132,0.0129,0.0129,0.0131,0.0131,0.0133,0.0136,0.0135,0.014,0.0138,0.0138,0.0142,0.0138,0.0138,0.0138,0.0148,0.0149,0.015,0,0,0,0,0,0,0.0127,0.0129,0.0132,0.0133,0.0133,0.013,0.0131,0.013,0.0133,0.0136,0.0135,0.0136,0.0138,0.0138,0.0137,0.0143,0.0139,0.0139,0.0146,0.0147,0.0148,0.014,0.0136,0,0,0,0,0,0.0129,0.0133,0.0132,0.0133,0.0134,0.0132,0.0132,0.0133,0.0133,0.0135,0.0136,0.0138,0.0138,0.0142,0.014,0.0145,0.0127,0.0147,0.0148,0.0149,0.0142,0.0119,0.0117,0.014,0.014,0.014,0,0,0.0128,0.013,0.0132,0.0134,0.0134,0.0138,0.0133,0.0134,0.0139,0.0134,0.0142,0.0138,0.0138,0.0143,0.0145,0.0146,0.0133,0.015,0.015,0.0142,0.0119,0.0116,0.0114,0.014,0.014,0.014,0,0,0.0129,0.0132,0.0137,0.0139,0.014,0.014,0.014,0.014,0.0143,0.0146,0.0145,0.0141,0.0146,0.0146,0.0147,0.0151,0.0135,0.0155,0.0158,0.0136,0.0134,0.0132,0.0105,0.01,0.0161,0.0161,0.0161,0,0.0129,0.0138,0.0136,0.0142,0.0148,0.0142,0.015,0.015,0.0151,0.0152,0.0151,0.0146,0.0145,0.0147,0.015,0.0152,0.0135,0.0155,0.0137,0.0134,0.0131,0.0105,0.01,0.0161,0.0161,0.0161,0.0161,0,0.0135,0.0144,0.0146,0.0156,0.016,0.0165,0.0166,0.0171,0.0171,0.0165,0.0162,0.0156,0.0155,0.0154,0.0153,0.0142,0.0133,0.0136,0.0132,0.013,0.0102,0.0096,0.0162,0.0162,0.0162,0.0162,0,0,0.0135,0.0149,0.0152,0.0169,0.0171,0.018,0.0185,0.019,0.0202,0.0185,0.0189,0.0176,0.0164,0.0163,0.016,0.014,0.0108,0.0132,0.0131,0.0103,0.0053,0.0062,0.0057,0.0107,0.0106,0.0106,0.0041,0,0.0145,0.0165,0.0166,0.0192,0.0207,0.0209,0.0224,0.0226,0.022,0.0221,0.0195,0.0196,0.0171,0.0178,0.0148,0.0126,0.0093,0.0124,0.0062,0.006,0.0066,0.0051,0.0103,0.0036,0.0035,0.0034,0.0033,0,0.0154,0.0172,0.0196,0.0233,0.0241,0.0256,0.0284,0.0296,0.0285,0.0278,0.0251,0.0228,0.0198,0.018,0.0109,0.0132,0.0085,0.0056,0.0053,0.0052,0.0058,0.0039,0.0022,0.0023,0.0024,0.0025,0.0025,0,0.017,0.0197,0.0222,0.0232,0.0265,0.0285,0.0309,0.0313,0.034,0.0313,0.0316,0.026,0.0254,0.0178,0.0111,0.011,0.0029,0.0025,-0.0021,-0.002,-0.0014,-0.0011,-0.0045,-0.0045,-0.0045,-0.0045,-0.0044,0,0.0185,0.0211,0.0238,0.0257,0.0313,0.0321,0.0373,0.0382,0.0396,0.0422,0.0352,0.035,0.0253,0.0196,0.0116,0.0034,0.003,-0.0031,-0.0039,-0.0007,-0.0003,-0.0018,-0.0014,-0.0047,-0.0047,-0.0046,-0.0046,0,0.0202,0.0212,0.0257,0.03,0.0323,0.0369,0.044,0.048,0.0473,0.0501,0.0496,0.0429,0.0347,0.0243,0.0131,0.0062,-0.0028,-0.006,-0.0022,-0.0025,-0.007,-0.0065,-0.0125,-0.0125,-0.0125,-0.0126,-0.0126,0,0.0211,0.0232,0.0297,0.0343,0.0369,0.0436,0.0495,0.0523,0.0553,0.0548,0.0559,0.0489,0.0426,0.0271,0.0153,-0.0009,-0.0032,-0.0086,-0.009,-0.0078,-0.008,-0.0074,-0.0068,-0.0126,-0.0126,-0.0126,-0.0126,0,0.0239,0.0261,0.0302,0.0386,0.0456,0.0541,0.0607,0.0632,0.0654,0.0649,0.0611,0.0518,0.0423,0.0281,0.016,0.0042,-0.0054,-0.0089,-0.0089,-0.0094,-0.0081,-0.008,-0.0075,-0.0127,-0.0127,-0.0127,-0.0127,0,0.0265,0.0302,0.0352,0.0432,0.0519,0.0605,0.0647,0.0678,0.0708,0.0679,0.0668,0.0549,0.0482,0.0307,0.0195,0.0083,0.0045,0.0001,-0.0005,-0.0005,0.0049,0.0084,0.0074,0,0,0,0,0,0.0288,0.0329,0.0399,0.0483,0.0568,0.0622,0.0701,0.0728,0.073,0.0716,0.0692,0.0596,0.0422,0.034,0.0229,0.0184,0.0025,0.0049,-0.0029,-0.0131,-0.013,-0.0087,0,0,0,0,0,0,0.0306,0.0365,0.0394,0.05,0.0563,0.0667,0.0722,0.0741,0.0718,0.0697,0.0606,0.0557,0.0388,0.0483,0.0221,0.0186,0.012,-0.0034,-0.0037,-0.0132,-0.0131,-0.013,-0.0085,0,0,0,0,0]}]]